Hourly Data Report for October 20, 2019

All times are specified in Local Standard Time (LST). Add 1 hour to adjust for Daylight Saving Time where and when it is observed.

ABBOTSFORD A
BRITISH COLUMBIA
Current Station Operator: NAVCAN

49°01'31.000" N
122°21'36.000" W
59.10 m
1100031
71108
YXX

Download Data

Hourly Data (October 2019)
Hourly Data Report for October 20, 2019
TIME Temp Definition
°C
Dew Point Definition
°C
Rel Hum Definition
%
Wind Dir Definition
10's deg

Wind Spd Definition
km/h
Visibility Definition
km
Stn Press Definition
kPa
Hmdx Definition


Wind Chill Definition


Weather Definition


00:00 8.0 6.5 90 21 14 16.1 100.91     LegendNANA
01:00 7.8 6.7 93 21 5 16.1 100.97     Cloudy
02:00 7.8 6.8 93 19 9 16.1 100.98     LegendNANA
03:00 7.6 6.2 91 18 10 16.1 100.96     LegendNANA
04:00 7.8 6.1 89 22 9 16.1 100.97     Cloudy
05:00 7.8 6.0 88 24 9 16.1 100.95     LegendNANA
06:00 7.7 6.0 89 24 11 16.1 100.92     LegendNANA
07:00 7.7 6.1 90 25 8 32.2 100.89     Rain Showers
08:00 7.9 6.8 93 3 10 32.2 100.84     Rain Showers
09:00 8.1 6.8 91 33 5 32.2 100.84     Rain
10:00 8.7 7.3 91 3 13 32.2 100.75     Rain Showers
11:00 9.1 7.6 90 2 12 24.1 100.69     Rain
12:00 8.6 7.5 93 2 13 16.1 100.59     Rain
13:00 8.2 7.2 93 2 17 12.9 100.47     Rain
14:00 8.1 7.1 93 4 10 4.8 100.47     Rain,Fog
15:00 7.9 7.1 94 2 9 4.8 100.53     Rain,Fog
16:00 7.5 6.6 94 4 9 12.9 100.55     Drizzle
17:00 7.2 6.5 95 3 11 12.9 100.54     Rain Showers
18:00 7.3 6.7 96 4 8 11.3 100.61     Rain Showers
19:00 7.2 6.6 96 35 9 6.4 100.73     Rain Showers
20:00 7.2 6.7 96 4 6 11.3 100.83     LegendNANA
21:00 7.5 6.9 96 4 3 12.9 100.93     LegendNANA
22:00 7.5 6.9 96 1 5 12.9 101.00     Cloudy
23:00 7.2 6.7 96 32 9 12.9 101.11     LegendNANA

Notes on Data Quality.

Legend

  • E = Estimated
  • M = Missing
  • NA = Not Available
Date modified: